Amarant — SPG3207 — position and weather

sailwx.info

Track history (hours):
 
Tides and Currents Weather Stations Pressure Air Temp Water Temp Dewpoint Dewpoint Depression Visibility Wind Speed Wind Dir Waves Ship Positions

Amarant

Last reported at 2014-Jul-25 07:33 UTC. Time now 2014-Jul-25 16:03 UTC.
Position N 59°04' E 005°55'.

Length 14 m.

Type: Sailing vessel. MMSI: 261015190.

Date/timePositionNaut miles runAvg speedWind from/ knotsBaromVisibWave heightAir tempDewpointWater temp
2014-Jul-25 07:33N 59°04' E 005°55'0 0.0
2014-Jul-25 06:33N 59°04' E 005°55'0 0.0
2014-Jul-25 05:33N 59°04' E 005°55'0 0.0
2014-Jul-25 04:33N 59°04' E 005°55'0 0.0
2014-Jul-25 03:33N 59°04' E 005°55'0 0.0
2014-Jul-25 02:33N 59°04' E 005°55'0 0.0
2014-Jul-25 01:30N 59°04' E 005°55'0 0.0
2014-Jul-25 00:33N 59°04' E 005°55'0 0.0
2014-Jul-24 23:33N 59°04' E 005°55'0 0.0
2014-Jul-24 22:33N 59°04' E 005°55'0 0.0
2014-Jul-24 21:33N 59°04' E 005°55'0 0.0
2014-Jul-24 20:33N 59°04' E 005°55'0 0.0
2014-Jul-24 19:33N 59°04' E 005°55'0 0.0
2014-Jul-24 18:33N 59°04' E 005°55'0 0.0
2014-Jul-24 17:33N 59°04' E 005°55'0 0.0
2014-Jul-24 16:33N 59°04' E 005°55'2 1.9
2014-Jul-24 15:33N 59°03' E 005°51'4 4.4
2014-Jul-24 14:33N 59°05' E 005°43'3 3.0
2014-Jul-24 13:28N 59°06' E 005°37'3 3.7
2014-Jul-24 12:32N 59°07' E 005°31'4 3.8
2014-Jul-24 11:31N 59°08' E 005°23'4 0.3
2014-Jul-23 22:05N 59°09' E 005°15'0 0.0
2014-Jul-23 21:32N 59°09' E 005°15'0 0.0
2014-Jul-23 20:32N 59°09' E 005°15'0 0.0
2014-Jul-23 19:32N 59°09' E 005°15'0 0.0
2014-Jul-23 18:32N 59°09' E 005°15'0 0.0
2014-Jul-23 17:33N 59°09' E 005°15'1 0.8
2014-Jul-23 16:33N 59°08' E 005°17'3 2.5
2014-Jul-23 15:33N 59°11' E 005°20'  
2014-Jul-18 17:14N 60°24' E 005°14'3 3.6
2014-Jul-18 16:32N 60°24' E 005°19'0 0.1
2014-Jul-18 09:31N 60°24' E 005°20'0 0.0
2014-Jul-18 08:31N 60°24' E 005°19'0 0.0
2014-Jul-18 07:31N 60°24' E 005°20'0 0.0
2014-Jul-17 17:07N 60°24' E 005°20'0 0.3
2014-Jul-17 16:29N 60°24' E 005°19'0 0.0
2014-Jul-17 15:31N 60°24' E 005°19'2 2.3
2014-Jul-17 14:32N 60°26' E 005°16'0 0.0
2014-Jul-16 12:15N 60°26' E 005°16'  
Track history (hours):
 
Tides and Currents Weather Stations Pressure Air Temp Water Temp Dewpoint Dewpoint Depression Visibility Wind Speed Wind Dir Waves Ship Positions

Amarant

Last reported at 2014-Jul-25 07:33 UTC. Time now 2014-Jul-25 16:03 UTC.
Position N 59°04' E 005°55'.

Length 14 m.

Type: Sailing vessel. MMSI: 261015190.

Date/timePositionNaut miles runAvg speedWind from/ knotsBaromVisibWave heightAir tempDewpointWater temp
2014-Jul-25 07:33N 59°04' E 005°55'0 0.0
2014-Jul-25 06:33N 59°04' E 005°55'0 0.0
2014-Jul-25 05:33N 59°04' E 005°55'0 0.0
2014-Jul-25 04:33N 59°04' E 005°55'0 0.0
2014-Jul-25 03:33N 59°04' E 005°55'0 0.0
2014-Jul-25 02:33N 59°04' E 005°55'0 0.0
2014-Jul-25 01:30N 59°04' E 005°55'0 0.0
2014-Jul-25 00:33N 59°04' E 005°55'0 0.0
2014-Jul-24 23:33N 59°04' E 005°55'0 0.0
2014-Jul-24 22:33N 59°04' E 005°55'0 0.0
2014-Jul-24 21:33N 59°04' E 005°55'0 0.0
2014-Jul-24 20:33N 59°04' E 005°55'0 0.0
2014-Jul-24 19:33N 59°04' E 005°55'0 0.0
2014-Jul-24 18:33N 59°04' E 005°55'0 0.0
2014-Jul-24 17:33N 59°04' E 005°55'0 0.0
2014-Jul-24 16:33N 59°04' E 005°55'2 1.9
2014-Jul-24 15:33N 59°03' E 005°51'4 4.4
2014-Jul-24 14:33N 59°05' E 005°43'3 3.0
2014-Jul-24 13:28N 59°06' E 005°37'3 3.7
2014-Jul-24 12:32N 59°07' E 005°31'4 3.8
2014-Jul-24 11:31N 59°08' E 005°23'4 0.3
2014-Jul-23 22:05N 59°09' E 005°15'0 0.0
2014-Jul-23 21:32N 59°09' E 005°15'0 0.0
2014-Jul-23 20:32N 59°09' E 005°15'0 0.0
2014-Jul-23 19:32N 59°09' E 005°15'0 0.0
2014-Jul-23 18:32N 59°09' E 005°15'0 0.0
2014-Jul-23 17:33N 59°09' E 005°15'1 0.8
2014-Jul-23 16:33N 59°08' E 005°17'3 2.5
2014-Jul-23 15:33N 59°11' E 005°20'  
2014-Jul-18 17:14N 60°24' E 005°14'3 3.6
2014-Jul-18 16:32N 60°24' E 005°19'0 0.1
2014-Jul-18 09:31N 60°24' E 005°20'0 0.0
2014-Jul-18 08:31N 60°24' E 005°19'0 0.0
2014-Jul-18 07:31N 60°24' E 005°20'0 0.0
2014-Jul-17 17:07N 60°24' E 005°20'0 0.3
2014-Jul-17 16:29N 60°24' E 005°19'0 0.0
2014-Jul-17 15:31N 60°24' E 005°19'2 2.3
2014-Jul-17 14:32N 60°26' E 005°16'0 0.0
2014-Jul-16 12:15N 60°26' E 005°16'  

Dump ship's entire track history